EHI
0 0 0 0 0 0 0 0 0 0 0 0 0 0 0 0 0 0 0 0 0 0 0 0 0 0 0 0 0 0 0 0 0 0 0 0 0 0 0 0 0 0 0 0
0 0 0 0 0 0 0 0 0 0 0 0 0 0 0 0 0 0 0 0 0 0 0 0 0 0 0 0 0 0 0 0 0 0 0 0 0 0 0 0 0 0 0 0
0 0 0 0 0 0 0 0 0 0 0 0 0 0 0 0 0 0 0 0 0 0 0 0 0 0 0 0 0 0 0 0 0 0 0 0 0 0 0 0 0 0 0 0
0 0 0 0 0 0 0 0 0 0 0 0 0 0 0 0 0 0 0 0 0 0 0 0 0 0 0 0 0 0 0 0 0 0 0 0 0 0 0 0 0 0 0 0
0 0 0 0 0 0 0 0 0 0 0 0 0 0 0 0 0 0 0 0 0 0 0 0 0 0 0 0 0 0 0 0 0 0 0 0 0 0 0 0 0 0 0 0
0 0 0 0 0 0 0 0 0 0 0 0 0 0 0 0 0 0 0 0 0 0 0 0 0 0 0 0 0 0 0 0 0 0 0 0 0 0 0 0 0 0 0 0
0 0 0 0 0 0 0 0 0 0 0 0 0 0 0 0 0 0 0 0 0 0 0 0 0 0 0 0 0 0 0 0 0 0 0 0 0 0 0 0 0 0 0 0
0 0 0 0 0 0 0 0 0 0 0 0 0 0 0 0 0 0 0 0 0 0 0 0 0 0 0 0 0 0 0 0 0 0 0 0 0 0 0 0 0 0 0 0
0 0 0 0 0 0 0 0 0 0 0 0 0 0 0 0 0 0 0 0 0 0 0 0 0 0 0 0 0 0 0 0 0 0 0 0 0 0 0 0 0 0 0 0
0 0 0 0 0 0 0 0 0 0 0 0 0 0 0 0 0 0 0 0 0 0 0 0 0 0 0 0 0 0 0 0 0 0 0 0 0 0 0 0 0 0 0 0
0 0 0 0 0 0 0 0 0 0 0 0 0 0 0 0 0 0 0 0 0 0 0 0 0 0 0 0 0 0 0 0 0 0 0 0 0 0 0 0 0 0 0 0
0 0 0 0 0 0 0 0 0 0 0 0 0 0 0 0 0 0 0 0 0 0 0 0 0 0 0 0 0 0 0 0 0 0 0 0 0 0 0 0 0 0 0 0
0 0 0 0 0 0 0 0 0 0 0 0 0 0 0 0 0 0 0 0 0 0 0 0 0 0 0 0 0 0 0 0 0 0 0 0 0 0 0 0 0 0 0 0
0 0 0 0 0 0 0 0 0 0 0 0 0 0 0 0 0 0 0 0 0 0 0 0 0 0 0 0 0 0 0 0 0 0 0 0 0 0 0 0 0 0 0 0
0 0 0 0 0 0 0 0 0 0 0 0 0 0 0 0 0 0 0 0 0 0 0 0 0 0 0 0 0 0 0 0 0 0 0 0 0 0 0 0 0 0 0 0
0 0 0 0 0 0 0 0 0 0 0 0 0 0 0 0 0 0 0 0 0 0 0 0 0 0 0 0 0 0 0 0 0 0 0 0 0 0 0 0 0 0 0 0
0 0 0 0 0 0 0 0 0 0 0 0 0 0 0 0 0 0 0 0 0 0 0 0 0 0 0 0 0 0 0 0 0 0 0 0 0 0 0 0 0 0 0 0
0 0 0 0 0 0 0 0 0 0 0 0 0 0 0 0 0 0 0 0 0 0 0 0 0 0 0 0 0 0 0 0 0 0 0 0 0 0 0 0 0 0 0 0
0 0 0 0 0 0 0 0 0 0 0 0 0 0 0 0 0 0 0 0 0 0 0 0 0 0 0 0 0 0 0 0 0 0 0 0 0 0 0 0 0 0 0 0
0 0 0 0 0 0 0 0 0 0 0 0 0 0 0 0 0 0 0 0 0 0 0 0 0 0 0 0 0 0 0 0 0 0 0 0 0 0 0 0 0 0 0 0
0 0 0 0 0 0 0 0 0 0 0 0 0 0 0 0 0 0 0 0 0 0 0 0 0 0 0 0 0 0 0 0 0 0 0 0 0 0 0 0 0 0 0 0
0 0 0 0 0 0 0 0 0 0 0 0 0 0 0 0 0 0 0 0 0 0 0 0 0 0 0 0 0 0 0 0 0 0 0 0 0 0 0 0 0 0 0 0
0 0 0 0 0 0 0 0 0 0 0 0 0 0 0 0 0 0 0 0 0 0 0 0 0 0 0 0 0 0 0 0 0 0 0 0 0 0 0 0 0 0 0 0
0 0 0 0 0 0 0 0 0 0 0 0 0 0 0 0 0 0 0 0 0 0 0 0 0 0 0 0 0 0 0 0 0 0 0 0 0 0 0 0 0 0 0 0
0 0 0 0 0 0 0 0 0 0 0 0 0 0 0 0 0 0 0 0 0 0 0 0 0 0 0 0 0 0 0 0 0 0 0 0 0 0 0 0 0 0 0 0
0 0 0 0 0 0 0 0 0 0 0 0 0 0 0 0 0 0 0 0 0 0 0 0 0 0 0 0 0 0 0 0 0 0 0 0 0 0 0 0 0 0 0 0
0 0 0 0 0 0 0 0 0 0 0 0 0 0 0 0 0 0 0 0 0 0 0 0 0 0 0 0 0 0 0 0 0 0 0 0 0 0 0 0 0 0 0 0
Wind_Speed
7 7 5 6 8 9 10 10 9 10 9 8 6 4 3 2 2 2 2 2 2 2 2 2 2 1 1 1 0 1 0 0 0 0 1 1 1 2 1 1 1 1 1 1
6 8 7 8 10 12 12 12 12 12 13 7 5 2 3 4 4 4 3 3 2 2 2 2 2 2 1 1 0 0 0 1 0 0 1 1 1 1 1 2 2 1 1 1
5 4 4 9 12 13 10 9 10 14 12 5 5 5 5 4 4 4 3 3 3 3 3 3 2 2 2 1 1 1 1 0 0 0 0 1 1 1 1 1 2 2 2 2
3 2 9 8 3 6 9 10 9 8 5 4 5 3 2 3 3 2 2 2 2 2 2 2 2 2 2 1 1 1 1 0 0 0 1 1 1 1 1 1 1 2 2 2
4 6 9 6 4 4 5 8 7 7 6 4 1 0 2 1 2 2 2 2 1 1 1 1 1 1 2 1 1 1 1 0 0 0 1 1 1 2 2 1 2 2 2 2
4 5 8 5 2 1 1 7 4 4 5 4 2 2 4 1 1 1 1 1 1 1 1 1 1 2 2 1 1 1 1 1 1 1 1 1 2 2 2 2 2 2 3 2
6 7 8 3 1 1 4 6 3 2 3 3 3 4 2 0 1 1 1 1 1 1 1 1 1 2 2 1 2 2 1 1 1 1 1 1 1 1 1 2 2 2 3 3
5 7 9 1 1 4 4 3 2 1 1 1 1 1 0 1 1 1 1 1 1 1 0 0 2 2 1 2 1 1 1 0 1 1 1 1 1 1 1 1 2 2 3 3
6 7 3 2 4 4 2 2 2 0 0 1 1 1 0 0 1 1 1 1 1 1 0 0 1 2 2 1 1 1 1 1 1 1 1 1 1 1 1 1 2 2 2 2
5 6 4 4 3 3 2 2 1 0 0 1 1 1 1 1 1 1 1 1 1 1 1 1 1 0 1 1 0 1 1 1 1 1 1 1 1 1 1 2 2 2 2 3
6 6 4 4 4 3 2 1 1 1 0 1 1 1 1 1 1 1 0 1 1 2 2 2 1 1 1 1 1 0 1 1 1 1 1 1 1 2 2 2 2 3 2 2
7 5 4 4 2 2 2 2 2 1 1 1 1 2 2 2 1 1 1 1 1 1 1 1 1 1 1 1 1 1 1 1 1 1 1 1 1 2 3 4 6 6 6 5
6 4 4 4 2 1 1 1 1 1 2 2 1 1 1 1 1 1 1 2 2 2 1 1 1 1 1 1 1 1 2 2 1 1 1 2 2 2 3 3 5 6 6 7
4 4 4 4 3 2 1 1 1 0 1 1 1 0 1 1 1 1 2 2 1 1 2 2 1 2 1 1 1 2 2 2 2 2 2 2 2 2 2 3 3 3 4 6
3 3 4 2 2 1 1 0 0 0 0 0 0 1 1 1 1 1 1 1 1 1 1 1 2 2 1 1 2 2 2 2 2 2 2 2 2 2 2 3 3 3 3 3
3 2 2 2 2 2 1 1 1 2 1 1 0 0 1 1 1 1 1 1 1 2 2 2 3 2 2 2 2 2 2 4 4 2 2 2 2 2 3 3 3 3 3 3
2 3 3 3 3 3 2 2 3 2 1 1 1 0 0 0 0 1 1 1 1 2 2 3 3 2 2 2 3 2 2 3 5 3 2 2 2 3 3 3 3 3 3 4
4 4 3 3 3 3 2 1 1 1 1 1 1 1 1 1 1 2 2 1 1 2 2 2 2 2 2 2 2 2 2 2 2 2 2 2 3 2 2 3 3 4 3 3
1 1 1 1 1 1 1 1 0 0 0 1 1 1 1 1 1 1 1 1 2 3 3 2 3 2 2 3 3 2 2 3 2 2 2 4 3 2 2 3 3 3 3 3
1 1 1 1 1 1 1 0 0 0 0 0 1 0 0 1 1 1 2 2 3 3 2 2 2 2 2 3 3 2 2 3 2 2 2 2 2 2 3 3 3 3 3 3
1 1 2 1 1 1 0 0 1 0 0 0 1 1 1 2 1 1 2 3 3 2 2 3 2 2 2 3 3 2 2 2 2 2 2 2 3 3 3 3 3 3 3 3
1 1 1 1 1 1 1 0 0 0 0 0 1 1 1 2 2 2 3 3 3 4 2 2 2 3 4 4 2 2 2 2 2 2 2 3 3 3 3 3 3 3 3 3
1 1 0 0 1 0 1 0 0 1 1 1 2 2 2 2 2 2 3 2 2 4 3 2 4 6 6 2 1 2 2 2 2 2 2 3 3 3 3 4 3 3 3 3
0 0 0 0 0 0 1 1 1 1 1 2 2 2 2 2 2 2 2 4 6 6 3 5 7 6 5 1 1 2 2 2 2 2 2 3 3 3 3 3 3 3 3 4
0 0 0 0 0 1 1 1 1 1 1 1 2 2 2 2 2 2 2 3 5 6 3 5 7 6 3 2 2 2 2 3 3 2 3 3 3 3 3 3 3 3 4 4
0 1 1 1 1 1 1 1 1 1 1 2 2 2 1 1 2 2 2 3 4 5 3 2 3 4 2 2 2 2 2 3 3 3 3 3 3 3 3 3 4 4 4 4
0 1 1 1 1 1 1 1 1 2 2 2 2 2 2 2 2 2 3 2 2 2 2 2 2 2 2 2 2 2 2 2 2 2 3 3 3 3 3 4 4 3 3 3
Wind_Direction
263 275 257 246 238 222 221 226 235 254 258 257 247 224 213 199 197 185 179 168 166 165 155 144 135 125 123 129 103 75 72 188 174 28 31 6 334 335 349 342 321 306 294 293
264 257 250 255 242 232 235 238 246 261 267 258 254 225 212 205 202 209 208 196 189 178 169 173 166 162 160 173 190 138 211 223 159 68 10 334 329 345 344 331 315 308 299 286
256 259 288 257 230 220 226 227 225 242 250 251 248 230 218 215 204 207 213 204 202 192 184 184 179 170 177 200 208 192 207 220 187 186 284 295 311 330 308 303 310 311 302 292
260 267 245 244 227 209 226 241 233 245 256 247 236 233 230 210 191 196 209 214 209 196 192 179 164 153 159 179 170 169 191 222 229 230 280 306 307 299 295 296 298 297 291 288
227 246 264 255 234 208 222 259 235 234 245 247 236 17 266 204 156 186 211 214 206 203 184 145 139 133 126 143 142 151 193 233 259 221 276 290 290 289 297 303 298 288 287 288
227 242 251 252 240 248 196 267 252 230 236 227 162 222 248 209 133 176 177 164 180 175 148 149 145 132 134 159 166 194 218 237 249 237 234 261 276 292 301 299 292 295 291 281
234 246 262 265 246 139 200 254 294 240 229 207 204 217 229 96 99 135 139 146 135 129 135 155 140 137 160 184 219 221 223 245 254 255 243 251 268 286 298 302 302 302 300 298
210 232 252 249 156 209 243 297 317 274 229 216 204 178 154 125 133 121 113 114 116 119 132 150 140 143 172 223 237 196 190 234 264 271 267 275 258 272 275 281 292 296 300 304
206 223 246 209 238 259 287 287 300 289 281 182 190 198 195 215 189 158 149 143 132 141 175 178 150 156 195 238 187 165 177 228 261 282 285 272 256 267 275 268 273 282 285 292
256 259 252 243 258 274 272 259 282 142 144 114 176 217 242 261 250 211 154 141 135 143 173 219 202 203 222 216 165 170 213 245 251 251 260 268 271 266 262 262 270 278 284 290
261 271 280 264 257 263 275 286 305 325 248 180 185 233 245 261 253 227 189 148 154 175 193 220 214 239 249 191 163 200 267 274 277 265 254 265 268 262 265 255 257 271 274 275
244 247 239 262 271 266 246 245 244 244 273 258 211 227 243 244 242 214 200 179 180 186 194 216 207 249 256 215 187 202 247 269 273 272 264 260 273 293 282 269 277 278 281 283
250 271 270 279 291 296 263 272 259 217 220 242 246 217 225 244 252 222 202 190 198 209 222 229 231 250 252 213 211 220 237 256 264 269 268 261 263 271 291 299 284 277 284 292
258 265 265 268 267 272 264 273 293 298 220 200 208 199 205 226 235 223 219 213 205 209 226 229 235 254 253 230 239 245 251 258 262 254 256 259 260 265 269 281 296 300 296 293
265 265 245 254 266 265 242 197 120 287 256 224 181 205 213 214 230 244 240 222 196 222 240 235 245 263 256 231 239 244 251 252 252 248 247 249 255 261 264 268 275 285 296 296
270 261 231 228 233 234 220 203 208 233 237 231 218 241 233 196 217 258 258 210 199 234 248 247 254 260 240 234 245 244 241 253 262 253 248 249 250 254 260 264 269 273 277 280
215 224 222 232 238 238 227 223 222 224 220 216 225 230 158 137 264 286 284 264 241 249 249 246 253 253 240 236 238 243 243 249 259 260 246 247 251 251 255 259 264 271 273 277
219 227 220 217 220 232 240 225 207 204 213 223 201 176 188 202 232 263 277 286 297 291 275 257 249 252 245 244 242 241 245 247 244 243 246 248 252 250 252 256 261 267 276 282
219 217 205 196 186 177 184 184 187 188 180 159 167 191 223 237 247 269 288 287 274 278 277 259 277 276 258 253 259 240 245 250 250 246 243 252 259 253 253 258 264 268 271 276
91 86 81 73 77 112 141 140 93 53 14 115 119 105 304 292 286 283 283 272 261 261 265 276 275 256 248 250 262 242 241 246 248 252 250 245 247 252 253 258 262 264 265 268
95 82 76 69 54 56 113 151 137 153 330 123 179 228 260 281 285 279 279 283 283 280 290 296 297 277 267 264 263 250 244 247 246 246 250 253 256 259 259 261 265 267 268 271
113 99 90 81 71 20 347 42 145 185 290 298 285 279 287 294 296 287 265 265 284 298 309 290 279 278 281 280 257 247 249 249 249 249 252 253 252 256 260 262 263 266 268 268
133 133 147 180 192 242 319 323 230 220 230 245 258 266 267 269 269 275 287 284 291 297 305 287 286 288 286 277 256 252 251 249 247 248 251 252 253 255 257 259 260 262 264 265
116 112 223 223 142 148 278 288 287 264 248 258 256 254 259 279 282 263 272 299 303 301 298 291 293 293 292 279 262 257 253 251 250 250 253 257 256 255 259 261 261 263 264 264
161 215 212 187 227 247 251 267 290 280 274 270 272 274 264 248 259 279 287 289 294 302 299 293 295 297 299 279 259 255 254 250 249 248 249 255 257 259 262 264 262 262 263 263
243 258 256 245 242 241 236 242 265 274 284 291 296 295 293 290 288 292 290 285 284 294 297 294 293 294 291 278 266 258 256 264 269 263 256 258 260 261 264 267 263 261 262 262
262 258 260 282 271 247 238 243 255 269 276 279 288 293 294 296 297 298 298 295 295 292 290 290 289 286 286 283 279 272 269 266 261 257 259 260 262 264 265 268 271 271 270 267